Location: Unspecified
(42.3650°N, 71.1030°W)
Time: 22:24:39
(UTC+00:00)

Courier 1B Rocket - Pass Details

Date: 29 June 2024
Orbit: 920 x 1201 km, 28.2° (Epoch: 14 July)

Event Time Altitude Azimuth Distance (km) Brightness Sun altitude
Exits shadow 06:06:06 15° 138° (SE) 2,362 6.7 -22.0°
Drops below altitude 10° 06:07:31 10° 128° (SE) 2,715 7.1 -21.9°
Sets 06:10:50 0° 114° (ESE) 3,711 8.0 -21.7°
